THY2XH UGTB-LTFM

Flight info

Callsign THY2XH
Flight time 2h 16m
Altitude 34000
Route ZAGOT DCT NOLGA UG261 TBN UW71 CRM UM688 EKSUK UL852 EVPIM UT304 LUUPU UT310 NUGBA
Aircraft A321/M-SDE3FGHIRWY/LB1

Departure

Time 2026-04-16 02:02
Airport Tbilisi International Airport (UGTB)

Arrival

Time 2026-04-16 04:18
Airport İstanbul Airport (LTFM)
Time Latitude Longitude Altitude Speed Heading
2026-04-16 01:35 41.66895 44.96344 1528 ft 0 kts 43°
2026-04-16 01:52 41.66888 44.96335 1527 ft 4 kts 43°
2026-04-16 01:52 41.66868 44.96310 1521 ft 4 kts 43°
2026-04-16 01:53 41.66851 44.96288 1522 ft 4 kts 58°
2026-04-16 01:53 41.66847 44.96260 1519 ft 4 kts 118°
2026-04-16 01:53 41.66858 44.96239 1519 ft 0 kts 133°
2026-04-16 01:56 41.66855 44.96244 1519 ft 1 kts 133°
2026-04-16 01:57 41.66845 44.96259 1519 ft 3 kts 133°
2026-04-16 01:57 41.66827 44.96285 1523 ft 5 kts 133°
2026-04-16 01:57 41.66801 44.96320 1522 ft 6 kts 135°
2026-04-16 01:57 41.66769 44.96365 1524 ft 7 kts 131°
2026-04-16 01:58 41.66728 44.96414 1523 ft 8 kts 156°
2026-04-16 01:58 41.66669 44.96424 1524 ft 9 kts 193°
2026-04-16 01:58 41.66601 44.96403 1526 ft 11 kts 193°
2026-04-16 01:58 41.66524 44.96379 1524 ft 12 kts 192°
2026-04-16 01:59 41.66439 44.96353 1521 ft 13 kts 195°
2026-04-16 01:59 41.66349 44.96323 1525 ft 14 kts 194°
2026-04-16 01:59 41.66252 44.96300 1521 ft 15 kts 180°
2026-04-16 01:59 41.66151 44.96337 1523 ft 16 kts 150°
2026-04-16 02:00 41.66065 44.96435 1524 ft 16 kts 137°
2026-04-16 02:00 41.65984 44.96541 1524 ft 16 kts 136°
2026-04-16 02:00 41.65907 44.96599 1523 ft 12 kts 177°
2026-04-16 02:00 41.65880 44.96590 1526 ft 1 kts 202°
2026-04-16 02:01 41.65869 44.96582 1524 ft 3 kts 212°
2026-04-16 02:01 41.65849 44.96548 1520 ft 7 kts 240°
2026-04-16 02:01 41.65850 44.96460 1522 ft 12 kts 293°
2026-04-16 02:01 41.65917 44.96367 1524 ft 17 kts 316°
2026-04-16 02:02 41.66146 44.96067 1525 ft 83 kts 318°
2026-04-16 02:02 41.66754 44.95304 1522 ft 154 kts 315°
2026-04-16 02:02 41.67604 44.94189 2074 ft 169 kts 316°
2026-04-16 02:02 41.68456 44.93113 3131 ft 170 kts 316°
2026-04-16 02:03 41.69311 44.92023 3769 ft 172 kts 316°
2026-04-16 02:03 41.70243 44.90847 3936 ft 197 kts 318°
2026-04-16 02:03 41.71309 44.89555 4152 ft 216 kts 318°
2026-04-16 02:04 41.73772 44.86556 4589 ft 262 kts 318°
2026-04-16 02:04 41.75113 44.84899 5361 ft 261 kts 317°
2026-04-16 02:04 41.76455 44.83234 6073 ft 264 kts 317°
2026-04-16 02:04 41.77813 44.81548 6752 ft 268 kts 317°
2026-04-16 02:05 41.79160 44.79798 7430 ft 271 kts 311°
2026-04-16 02:05 41.80142 44.77646 8092 ft 275 kts 289°
2026-04-16 02:05 41.80309 44.75099 8759 ft 277 kts 260°
2026-04-16 02:05 41.79678 44.72674 9518 ft 279 kts 244°
2026-04-16 02:06 41.78940 44.70264 10167 ft 281 kts 257°
2026-04-16 02:06 41.78740 44.67657 10766 ft 283 kts 272°
2026-04-16 02:06 41.78904 44.65020 11399 ft 285 kts 277°
2026-04-16 02:06 41.79141 44.62340 11633 ft 304 kts 276°
2026-04-16 02:07 41.79211 44.61437 11676 ft 310 kts 276°
2026-04-16 02:07 41.79309 44.59976 11744 ft 320 kts 275°
2026-04-16 02:07 41.79439 44.56909 11880 ft 338 kts 272°
2026-04-16 02:08 41.79479 44.53738 12140 ft 351 kts 270°
2026-04-16 02:08 41.79445 44.50433 12655 ft 356 kts 269°
2026-04-16 02:08 41.79368 44.47097 13212 ft 360 kts 268°
2026-04-16 02:08 41.79271 44.43731 13798 ft 363 kts 268°
2026-04-16 02:09 41.79173 44.40342 14305 ft 366 kts 268°
2026-04-16 02:09 41.79079 44.36923 14804 ft 369 kts 269°
2026-04-16 02:09 41.78990 44.33474 15305 ft 372 kts 269°
2026-04-16 02:09 41.78903 44.30002 15797 ft 375 kts 269°
2026-04-16 02:10 41.78818 44.26494 16285 ft 378 kts 269°
2026-04-16 02:10 41.78731 44.22959 16780 ft 381 kts 269°
2026-04-16 02:10 41.78642 44.19394 17275 ft 383 kts 269°
2026-04-16 02:10 41.78516 44.15818 17742 ft 386 kts 266°
2026-04-16 02:11 41.78012 44.12264 18190 ft 391 kts 256°
2026-04-16 02:11 41.77065 44.08835 18634 ft 395 kts 250°
2026-04-16 02:11 41.76021 44.05422 19054 ft 396 kts 250°
2026-04-16 02:11 41.74979 44.02008 19495 ft 397 kts 251°
2026-04-16 02:12 41.73936 43.98579 19917 ft 398 kts 251°
2026-04-16 02:12 41.72894 43.95148 20342 ft 398 kts 251°
2026-04-16 02:12 41.71852 43.91709 20759 ft 399 kts 251°
2026-04-16 02:12 41.70803 43.88255 21184 ft 400 kts 252°
2026-04-16 02:13 41.69751 43.84800 21583 ft 402 kts 252°
2026-04-16 02:13 41.68695 43.81331 21988 ft 403 kts 252°
2026-04-16 02:13 41.67636 43.77854 22379 ft 405 kts 252°
2026-04-16 02:13 41.66569 43.74361 22766 ft 406 kts 252°
2026-04-16 02:14 41.65497 43.70861 23140 ft 408 kts 252°
2026-04-16 02:14 41.64416 43.67343 23531 ft 410 kts 252°
2026-04-16 02:14 41.63329 43.63811 23899 ft 412 kts 252°
2026-04-16 02:14 41.62235 43.60263 24203 ft 413 kts 252°
2026-04-16 02:15 41.61137 43.56701 24496 ft 415 kts 252°
2026-04-16 02:15 41.60032 43.53120 24793 ft 418 kts 252°
2026-04-16 02:15 41.58925 43.49530 25080 ft 419 kts 251°
2026-04-16 02:15 41.57807 43.45914 25366 ft 422 kts 251°
2026-04-16 02:16 41.56684 43.42290 25646 ft 424 kts 251°
2026-04-16 02:16 41.55553 43.38646 25932 ft 425 kts 251°
2026-04-16 02:16 41.54418 43.34992 26209 ft 427 kts 251°
2026-04-16 02:16 41.53275 43.31320 26495 ft 429 kts 251°
2026-04-16 02:17 41.52127 43.27627 26775 ft 431 kts 251°
2026-04-16 02:17 41.50976 43.23921 27058 ft 433 kts 251°
2026-04-16 02:17 41.49817 43.20197 27312 ft 435 kts 251°
2026-04-16 02:17 41.48648 43.16462 27559 ft 437 kts 250°
2026-04-16 02:18 41.47471 43.12712 27813 ft 439 kts 250°
2026-04-16 02:18 41.46289 43.08949 28074 ft 441 kts 250°
2026-04-16 02:18 41.45099 43.05177 28300 ft 442 kts 250°
2026-04-16 02:18 41.43906 43.01394 28526 ft 444 kts 250°
2026-04-16 02:19 41.42872 42.97521 28751 ft 442 kts 257°
2026-04-16 02:19 41.42270 42.93527 29050 ft 439 kts 263°
2026-04-16 02:19 41.41795 42.89510 29366 ft 438 kts 263°
2026-04-16 02:19 41.41312 42.85502 29670 ft 438 kts 263°
2026-04-16 02:20 41.40822 42.81501 29979 ft 437 kts 263°
2026-04-16 02:20 41.40329 42.77508 30282 ft 437 kts 262°
2026-04-16 02:20 41.39834 42.73523 30549 ft 436 kts 262°
2026-04-16 02:20 41.39337 42.69543 30813 ft 435 kts 262°
2026-04-16 02:21 41.38840 42.65569 31096 ft 434 kts 262°
2026-04-16 02:21 41.38352 42.61665 31378 ft 432 kts 262°
2026-04-16 02:21 41.37858 42.57720 31650 ft 431 kts 262°
2026-04-16 02:21 41.37366 42.53799 31922 ft 430 kts 262°
2026-04-16 02:22 41.36871 42.49869 32215 ft 429 kts 262°
2026-04-16 02:22 41.36377 42.45960 32491 ft 427 kts 263°
2026-04-16 02:22 41.35887 42.42065 32766 ft 426 kts 263°
2026-04-16 02:22 41.35397 42.38179 33020 ft 425 kts 263°
2026-04-16 02:23 41.34907 42.34311 33299 ft 424 kts 263°
2026-04-16 02:23 41.34413 42.30450 33568 ft 422 kts 263°
2026-04-16 02:23 41.33923 42.26602 33837 ft 421 kts 263°
2026-04-16 02:23 41.33433 42.22759 34090 ft 420 kts 263°
2026-04-16 02:24 41.32943 42.18935 34213 ft 419 kts 263°
2026-04-16 02:24 41.32450 42.15112 34228 ft 418 kts 263°
2026-04-16 02:24 41.31465 42.07492 34228 ft 418 kts 263°
2026-04-16 02:25 41.30476 41.99884 34234 ft 417 kts 263°
2026-04-16 02:25 41.29487 41.92285 34234 ft 417 kts 263°
2026-04-16 02:26 41.28492 41.84695 34232 ft 417 kts 263°
2026-04-16 02:26 41.27494 41.77108 34227 ft 417 kts 263°
2026-04-16 02:27 41.26482 41.69528 34228 ft 416 kts 263°
2026-04-16 02:27 41.25465 41.61936 34243 ft 416 kts 263°
2026-04-16 02:28 41.24453 41.54358 34246 ft 416 kts 263°
2026-04-16 02:28 41.23434 41.46788 34241 ft 416 kts 263°
2026-04-16 02:29 41.22402 41.39213 34238 ft 416 kts 263°
2026-04-16 02:29 41.21365 41.31647 34231 ft 416 kts 263°
2026-04-16 02:30 41.20343 41.24119 34237 ft 416 kts 263°
2026-04-16 02:30 41.19303 41.16558 34242 ft 416 kts 263°
2026-04-16 02:31 41.18253 41.08998 34248 ft 416 kts 263°
2026-04-16 02:31 41.17201 41.01448 34253 ft 416 kts 263°
2026-04-16 02:32 41.16144 40.93893 34261 ft 416 kts 263°
2026-04-16 02:32 41.15090 40.86338 34260 ft 416 kts 263°
2026-04-16 02:33 41.14027 40.78788 34262 ft 416 kts 263°
2026-04-16 02:33 41.12955 40.71247 34255 ft 416 kts 263°
2026-04-16 02:34 41.11879 40.63716 34255 ft 416 kts 263°
2026-04-16 02:34 41.10804 40.56189 34251 ft 415 kts 263°
2026-04-16 02:35 41.09723 40.48667 34241 ft 415 kts 263°
2026-04-16 02:35 41.08632 40.41149 34238 ft 415 kts 263°
2026-04-16 02:36 41.07536 40.33639 34236 ft 415 kts 263°
2026-04-16 02:36 41.06439 40.26134 34231 ft 415 kts 263°
2026-04-16 02:37 41.05527 40.19897 34237 ft 415 kts 263°
2026-04-16 02:37 41.04511 40.12983 34240 ft 414 kts 263°
2026-04-16 02:38 41.03405 40.05489 34249 ft 414 kts 262°
2026-04-16 02:38 41.02288 39.97995 34250 ft 414 kts 262°
2026-04-16 02:39 41.01174 39.90515 34259 ft 414 kts 262°
2026-04-16 02:39 41.00053 39.83033 34261 ft 414 kts 263°
2026-04-16 02:40 40.99908 39.75524 34260 ft 407 kts 279°
2026-04-16 02:40 41.00638 39.68098 34259 ft 407 kts 279°
2026-04-16 02:41 41.01356 39.60661 34260 ft 407 kts 279°
2026-04-16 02:41 41.02058 39.53224 34252 ft 407 kts 279°
2026-04-16 02:42 41.02760 39.45782 34245 ft 407 kts 279°
2026-04-16 02:42 41.03460 39.38342 34244 ft 407 kts 279°
2026-04-16 02:43 41.04151 39.30895 34228 ft 407 kts 279°
2026-04-16 02:43 41.04832 39.23494 34228 ft 407 kts 279°
2026-04-16 02:44 41.05510 39.15992 34229 ft 407 kts 279°
2026-04-16 02:44 41.06194 39.08585 34227 ft 407 kts 279°
2026-04-16 02:45 41.06891 39.01139 34221 ft 407 kts 279°
2026-04-16 02:45 41.07581 38.93687 34229 ft 407 kts 279°
2026-04-16 02:46 41.08253 38.86232 34226 ft 407 kts 279°
2026-04-16 02:46 41.08927 38.78777 34230 ft 407 kts 279°
2026-04-16 02:47 41.09594 38.71319 34225 ft 407 kts 279°
2026-04-16 02:47 41.10253 38.63860 34231 ft 407 kts 278°
2026-04-16 02:48 41.10892 38.56396 34240 ft 407 kts 278°
2026-04-16 02:48 41.11517 38.48925 34230 ft 407 kts 278°
2026-04-16 02:49 41.12140 38.41450 34230 ft 408 kts 278°
2026-04-16 02:49 41.12754 38.33970 34230 ft 408 kts 278°
2026-04-16 02:50 41.13367 38.26494 34244 ft 408 kts 278°
2026-04-16 02:50 41.13984 38.19017 34236 ft 408 kts 278°
2026-04-16 02:51 41.14594 38.11531 34238 ft 408 kts 278°
2026-04-16 02:51 41.15205 38.04034 34234 ft 408 kts 278°
2026-04-16 02:52 41.15807 37.96536 34234 ft 409 kts 278°
2026-04-16 02:52 41.16398 37.89039 34231 ft 408 kts 278°
2026-04-16 02:53 41.17008 37.81598 34232 ft 408 kts 278°
2026-04-16 02:53 41.17653 37.74113 34233 ft 408 kts 278°
2026-04-16 02:54 41.18296 37.66622 34225 ft 408 kts 278°
2026-04-16 02:54 41.18902 37.59118 34225 ft 409 kts 277°
2026-04-16 02:55 41.19317 37.51588 34231 ft 409 kts 277°
2026-04-16 02:55 41.19817 37.44066 34233 ft 409 kts 278°
2026-04-16 02:56 41.20389 37.36556 34228 ft 409 kts 278°
2026-04-16 02:56 41.20964 37.29044 34229 ft 409 kts 278°
2026-04-16 02:57 41.21522 37.21516 34228 ft 409 kts 278°
2026-04-16 02:57 41.22100 37.14005 34230 ft 409 kts 278°
2026-04-16 02:58 41.22690 37.06494 34233 ft 409 kts 278°
2026-04-16 02:58 41.23269 36.98982 34231 ft 409 kts 278°
2026-04-16 02:59 41.23841 36.91460 34236 ft 409 kts 278°
2026-04-16 02:59 41.24408 36.83935 34233 ft 409 kts 278°
2026-04-16 03:00 41.24978 36.76401 34234 ft 410 kts 278°
2026-04-16 03:00 41.25532 36.68864 34234 ft 410 kts 278°
2026-04-16 03:01 41.26081 36.61322 34237 ft 410 kts 278°
2026-04-16 03:01 41.26627 36.53772 34241 ft 410 kts 278°
2026-04-16 03:02 41.27172 36.46211 34241 ft 411 kts 278°
2026-04-16 03:02 41.27709 36.38652 34239 ft 411 kts 277°
2026-04-16 03:03 41.28241 36.31096 34239 ft 411 kts 277°
2026-04-16 03:03 41.28757 36.23530 34232 ft 410 kts 277°
2026-04-16 03:04 41.29273 36.15978 34229 ft 410 kts 277°
2026-04-16 03:04 41.29790 36.08430 34221 ft 409 kts 277°
2026-04-16 03:05 41.30297 36.00889 34216 ft 409 kts 277°
2026-04-16 03:05 41.30803 35.93354 34215 ft 409 kts 277°
2026-04-16 03:06 41.31293 35.85818 34207 ft 408 kts 277°
2026-04-16 03:07 41.32016 35.74594 34201 ft 407 kts 277°
2026-04-16 03:07 41.32500 35.67098 34197 ft 406 kts 277°
2026-04-16 03:08 41.32978 35.59604 34197 ft 406 kts 277°
2026-04-16 03:08 41.33458 35.52129 34192 ft 406 kts 277°
2026-04-16 03:09 41.33921 35.44647 34191 ft 405 kts 277°
2026-04-16 03:09 41.34382 35.37171 34184 ft 405 kts 277°
2026-04-16 03:10 41.34837 35.29701 34184 ft 405 kts 277°
2026-04-16 03:10 41.35287 35.22241 34185 ft 404 kts 277°
2026-04-16 03:11 41.35731 35.14777 34182 ft 404 kts 277°
2026-04-16 03:11 41.36169 35.07335 34180 ft 404 kts 277°
2026-04-16 03:12 41.36603 34.99893 34172 ft 403 kts 277°
2026-04-16 03:12 41.37037 34.92454 34174 ft 403 kts 277°
2026-04-16 03:13 41.37466 34.85019 34172 ft 403 kts 277°
2026-04-16 03:13 41.37887 34.77595 34176 ft 402 kts 277°
2026-04-16 03:14 41.38298 34.70161 34171 ft 402 kts 277°
2026-04-16 03:14 41.38701 34.62737 34170 ft 402 kts 277°
2026-04-16 03:15 41.39096 34.55308 34176 ft 402 kts 277°
2026-04-16 03:15 41.39502 34.47887 34167 ft 402 kts 277°
2026-04-16 03:16 41.39895 34.40466 34168 ft 402 kts 276°
2026-04-16 03:16 41.40494 34.33099 34169 ft 399 kts 285°
2026-04-16 03:17 41.42234 34.26115 34171 ft 397 kts 290°
2026-04-16 03:17 41.44037 34.19157 34171 ft 397 kts 290°
2026-04-16 03:18 41.45831 34.12185 34176 ft 397 kts 290°
2026-04-16 03:18 41.47319 34.06400 34180 ft 397 kts 290°
2026-04-16 03:19 41.49116 33.99416 34184 ft 397 kts 290°
2026-04-16 03:19 41.51198 33.91319 34191 ft 398 kts 290°
2026-04-16 03:20 41.52697 33.85455 34192 ft 398 kts 290°
2026-04-16 03:20 41.54469 33.78506 34195 ft 398 kts 290°
2026-04-16 03:21 41.56257 33.71467 34191 ft 398 kts 289°
2026-04-16 03:21 41.58024 33.64466 34193 ft 398 kts 289°
2026-04-16 03:22 41.59778 33.57503 34192 ft 398 kts 289°
2026-04-16 03:22 41.61551 33.50507 34190 ft 398 kts 289°
2026-04-16 03:23 41.63322 33.43496 34181 ft 398 kts 289°
2026-04-16 03:23 41.65084 33.36480 34189 ft 398 kts 289°
2026-04-16 03:24 41.66837 33.29458 34179 ft 398 kts 289°
2026-04-16 03:24 41.68587 33.22422 34185 ft 399 kts 289°
2026-04-16 03:25 41.70341 33.15384 34182 ft 399 kts 289°
2026-04-16 03:25 41.72083 33.08332 34178 ft 399 kts 289°
2026-04-16 03:26 41.73819 33.01282 34177 ft 399 kts 289°
2026-04-16 03:26 41.75564 32.94224 34172 ft 399 kts 289°
2026-04-16 03:27 41.77300 32.87154 34176 ft 399 kts 289°
2026-04-16 03:27 41.79023 32.80073 34172 ft 400 kts 288°
2026-04-16 03:28 41.80748 32.72996 34172 ft 400 kts 288°
2026-04-16 03:28 41.82474 32.65912 34167 ft 400 kts 288°
2026-04-16 03:29 41.84192 32.58825 34170 ft 400 kts 288°
2026-04-16 03:29 41.85902 32.51733 34170 ft 400 kts 288°
2026-04-16 03:30 41.87608 32.44632 34172 ft 400 kts 288°
2026-04-16 03:30 41.89289 32.37522 34174 ft 399 kts 285°
2026-04-16 03:31 41.90241 32.30176 34168 ft 400 kts 280°
2026-04-16 03:31 41.90525 32.22725 34171 ft 404 kts 265°
2026-04-16 03:32 41.89206 32.15361 34171 ft 407 kts 258°
2026-04-16 03:34 41.83229 31.86218 34172 ft 404 kts 258°
2026-04-16 03:34 41.81718 31.78961 34175 ft 404 kts 258°
2026-04-16 03:35 41.80209 31.71710 34178 ft 403 kts 258°
2026-04-16 03:35 41.78700 31.64480 34168 ft 403 kts 258°
2026-04-16 03:36 41.77183 31.57252 34170 ft 403 kts 258°
2026-04-16 03:36 41.75659 31.50033 34177 ft 402 kts 258°
2026-04-16 03:37 41.74128 31.42825 34172 ft 402 kts 258°
2026-04-16 03:37 41.72600 31.35614 34171 ft 402 kts 258°
2026-04-16 03:38 41.71073 31.28409 34168 ft 402 kts 258°
2026-04-16 03:38 41.69534 31.21212 34171 ft 402 kts 258°
2026-04-16 03:39 41.67988 31.14015 34167 ft 403 kts 258°
2026-04-16 03:39 41.66540 31.06785 34162 ft 402 kts 259°
2026-04-16 03:40 41.65220 30.99565 34146 ft 403 kts 259°
2026-04-16 03:40 41.64553 30.95915 33607 ft 406 kts 259°
2026-04-16 03:40 41.63864 30.92200 32315 ft 417 kts 259°
2026-04-16 03:40 41.63149 30.88405 31150 ft 425 kts 259°
2026-04-16 03:41 41.62416 30.84554 30165 ft 429 kts 258°
2026-04-16 03:41 41.61675 30.80705 29388 ft 425 kts 258°
2026-04-16 03:41 41.60943 30.76930 28939 ft 416 kts 258°
2026-04-16 03:41 41.60222 30.73218 28402 ft 409 kts 258°
2026-04-16 03:42 41.59534 30.69581 28088 ft 397 kts 261°
2026-04-16 03:42 41.59208 30.65974 27719 ft 386 kts 271°
2026-04-16 03:42 41.59311 30.62422 27460 ft 383 kts 275°
2026-04-16 03:42 41.59463 30.58873 27050 ft 381 kts 274°
2026-04-16 03:43 41.59599 30.55344 26600 ft 380 kts 274°
2026-04-16 03:43 41.59723 30.51828 26154 ft 378 kts 274°
2026-04-16 03:43 41.59843 30.48325 25712 ft 377 kts 274°
2026-04-16 03:43 41.59962 30.44842 25270 ft 375 kts 274°
2026-04-16 03:44 41.60084 30.41359 24826 ft 374 kts 274°
2026-04-16 03:44 41.60206 30.37900 24382 ft 372 kts 274°
2026-04-16 03:44 41.60328 30.34452 23953 ft 371 kts 274°
2026-04-16 03:44 41.60678 30.31058 23460 ft 368 kts 285°
2026-04-16 03:45 41.61558 30.27865 23030 ft 366 kts 296°
2026-04-16 03:45 41.62920 30.24988 22594 ft 366 kts 308°
2026-04-16 03:45 41.64649 30.22487 22166 ft 366 kts 313°
2026-04-16 03:45 41.66419 30.20046 21730 ft 365 kts 313°
2026-04-16 03:46 41.68157 30.17641 21305 ft 363 kts 313°
2026-04-16 03:46 41.69930 30.15182 20847 ft 362 kts 312°
2026-04-16 03:46 41.71668 30.12764 20371 ft 360 kts 312°
2026-04-16 03:46 41.73244 30.10248 19922 ft 356 kts 300°
2026-04-16 03:47 41.74165 30.07201 19452 ft 353 kts 281°
2026-04-16 03:47 41.74259 30.03939 19001 ft 353 kts 262°
2026-04-16 03:47 41.73525 30.00822 18550 ft 353 kts 243°
2026-04-16 03:47 41.72106 29.98140 18039 ft 354 kts 232°
2026-04-16 03:48 41.70543 29.95595 17581 ft 353 kts 232°
2026-04-16 03:48 41.68982 29.93074 17126 ft 351 kts 232°
2026-04-16 03:48 41.67426 29.90568 16723 ft 349 kts 232°
2026-04-16 03:48 41.65889 29.88093 16408 ft 341 kts 232°
2026-04-16 03:49 41.64406 29.85704 16279 ft 327 kts 232°
2026-04-16 03:49 41.63059 29.83345 16090 ft 314 kts 240°
2026-04-16 03:49 41.62171 29.80736 15801 ft 305 kts 255°
2026-04-16 03:49 41.61788 29.77973 15554 ft 302 kts 268°
2026-04-16 03:50 41.61697 29.75172 15309 ft 301 kts 268°
2026-04-16 03:50 41.61671 29.74382 15240 ft 301 kts 268°
2026-04-16 03:50 41.61647 29.73675 15175 ft 301 kts 268°
2026-04-16 03:50 41.61549 29.70888 14932 ft 300 kts 268°
2026-04-16 03:51 41.61451 29.68112 14695 ft 299 kts 268°
2026-04-16 03:51 41.61352 29.65339 14449 ft 298 kts 268°
2026-04-16 03:51 41.61253 29.62577 14203 ft 297 kts 268°
2026-04-16 03:51 41.61080 29.59831 13978 ft 296 kts 259°
2026-04-16 03:52 41.60425 29.57228 13717 ft 297 kts 244°
2026-04-16 03:52 41.59266 29.54951 13447 ft 298 kts 229°
2026-04-16 03:52 41.57729 29.53092 13179 ft 299 kts 222°
2026-04-16 03:52 41.56142 29.51300 12928 ft 298 kts 222°
2026-04-16 03:53 41.54567 29.49515 12661 ft 297 kts 222°
2026-04-16 03:53 41.52997 29.47732 12422 ft 296 kts 222°
2026-04-16 03:53 41.51433 29.45951 12252 ft 296 kts 222°
2026-04-16 03:53 41.49865 29.44170 12005 ft 295 kts 222°
2026-04-16 03:54 41.48306 29.42402 11727 ft 294 kts 222°
2026-04-16 03:54 41.46750 29.40640 11454 ft 293 kts 222°
2026-04-16 03:54 41.45197 29.38886 11196 ft 292 kts 222°
2026-04-16 03:54 41.43641 29.37144 10902 ft 292 kts 221°
2026-04-16 03:55 41.42034 29.35490 10629 ft 291 kts 218°
2026-04-16 03:55 41.40398 29.33900 10352 ft 291 kts 218°
2026-04-16 03:55 41.38769 29.32346 10156 ft 283 kts 217°
2026-04-16 03:55 41.37186 29.30879 10029 ft 273 kts 212°
2026-04-16 03:56 41.35449 29.29912 9997 ft 272 kts 196°
2026-04-16 03:56 41.33566 29.29615 9996 ft 275 kts 181°
2026-04-16 03:56 41.31678 29.29631 9998 ft 275 kts 181°
2026-04-16 03:56 41.29764 29.29630 9996 ft 275 kts 182°
2026-04-16 03:57 41.27849 29.29627 9993 ft 275 kts 182°
2026-04-16 03:57 41.25933 29.29627 9990 ft 275 kts 182°
2026-04-16 03:57 41.24027 29.29884 9997 ft 277 kts 166°
2026-04-16 03:57 41.22255 29.30885 9991 ft 279 kts 148°
2026-04-16 03:58 41.20779 29.32551 9980 ft 279 kts 132°
2026-04-16 03:58 41.19475 29.34472 9984 ft 280 kts 132°
2026-04-16 03:58 41.18169 29.36390 9992 ft 280 kts 132°
2026-04-16 03:58 41.16860 29.38307 9988 ft 280 kts 132°
2026-04-16 03:59 41.15410 29.40027 9991 ft 279 kts 147°
2026-04-16 03:59 41.13785 29.41414 9977 ft 280 kts 148°
2026-04-16 03:59 41.12133 29.42818 9992 ft 280 kts 148°
2026-04-16 03:59 41.10498 29.44216 9986 ft 280 kts 148°
2026-04-16 04:00 41.08860 29.45619 9990 ft 280 kts 148°
2026-04-16 04:00 41.07157 29.46850 9985 ft 279 kts 160°
2026-04-16 04:00 41.05320 29.47660 9989 ft 279 kts 163°
2026-04-16 04:00 41.03468 29.48442 9987 ft 279 kts 163°
2026-04-16 04:01 41.01620 29.49224 9987 ft 279 kts 163°
2026-04-16 04:01 40.99770 29.50007 9987 ft 279 kts 163°
2026-04-16 04:01 40.97894 29.50670 9985 ft 278 kts 174°
2026-04-16 04:01 40.95972 29.50844 9986 ft 277 kts 179°
2026-04-16 04:02 40.94048 29.50961 9985 ft 277 kts 179°
2026-04-16 04:02 40.92150 29.50962 9983 ft 275 kts 192°
2026-04-16 04:02 40.90930 29.50475 9983 ft 271 kts 210°
2026-04-16 04:02 40.89124 29.48331 9904 ft 264 kts 242°
2026-04-16 04:03 40.88539 29.46097 9659 ft 256 kts 267°
2026-04-16 04:03 40.88553 29.44518 9526 ft 255 kts 277°
2026-04-16 04:03 40.88760 29.41423 9253 ft 255 kts 276°
2026-04-16 04:03 40.88859 29.39844 9119 ft 255 kts 276°
2026-04-16 04:04 40.88999 29.37511 8914 ft 255 kts 276°
2026-04-16 04:04 40.89139 29.35176 8717 ft 254 kts 276°
2026-04-16 04:04 40.89280 29.32846 8515 ft 254 kts 276°
2026-04-16 04:04 40.89421 29.30521 8321 ft 254 kts 276°
2026-04-16 04:05 40.89561 29.28196 8138 ft 254 kts 276°
2026-04-16 04:05 40.89700 29.25870 7958 ft 254 kts 276°
2026-04-16 04:05 40.89836 29.23547 7772 ft 253 kts 276°
2026-04-16 04:05 40.89970 29.21232 7593 ft 253 kts 276°
2026-04-16 04:06 40.90104 29.18945 7412 ft 253 kts 276°
2026-04-16 04:06 40.90239 29.16633 7228 ft 252 kts 276°
2026-04-16 04:06 40.90376 29.14325 7042 ft 252 kts 276°
2026-04-16 04:06 40.90513 29.12025 6855 ft 251 kts 276°
2026-04-16 04:07 40.90649 29.09717 6682 ft 251 kts 276°
2026-04-16 04:07 40.90917 29.05112 6305 ft 251 kts 276°
2026-04-16 04:07 40.91049 29.02820 6125 ft 247 kts 276°
2026-04-16 04:08 40.91033 29.00575 5916 ft 242 kts 262°
2026-04-16 04:08 40.90619 28.98467 5891 ft 241 kts 256°
2026-04-16 04:08 40.90166 28.96321 5826 ft 242 kts 256°
2026-04-16 04:08 40.89717 28.94170 5769 ft 242 kts 256°
2026-04-16 04:09 40.89270 28.92025 5717 ft 242 kts 256°
2026-04-16 04:09 40.88821 28.89877 5659 ft 243 kts 256°
2026-04-16 04:09 40.88368 28.87728 5598 ft 243 kts 256°
2026-04-16 04:09 40.87916 28.85579 5537 ft 243 kts 256°
2026-04-16 04:10 40.87573 28.83406 5465 ft 241 kts 271°
2026-04-16 04:10 40.87913 28.81273 5414 ft 237 kts 297°
2026-04-16 04:10 40.88916 28.79591 5350 ft 234 kts 323°
2026-04-16 04:10 40.90316 28.78507 5294 ft 233 kts 333°
2026-04-16 04:11 40.91745 28.77500 5229 ft 233 kts 333°
2026-04-16 04:11 40.93022 28.76595 5178 ft 233 kts 333°
2026-04-16 04:11 40.94467 28.75566 5071 ft 233 kts 333°
2026-04-16 04:11 40.95891 28.74552 4973 ft 232 kts 333°
2026-04-16 04:12 40.97293 28.73644 4969 ft 219 kts 342°
2026-04-16 04:12 40.98768 28.73303 4987 ft 214 kts 359°
2026-04-16 04:12 41.00255 28.73276 4985 ft 213 kts 360°
2026-04-16 04:12 41.01736 28.73249 4971 ft 213 kts 359°
2026-04-16 04:13 41.03212 28.73220 4800 ft 212 kts 360°
2026-04-16 04:13 41.04691 28.73192 4538 ft 211 kts
2026-04-16 04:13 41.06164 28.73163 4259 ft 211 kts
2026-04-16 04:13 41.07622 28.73135 3989 ft 208 kts
2026-04-16 04:14 41.09038 28.73107 3717 ft 199 kts
2026-04-16 04:14 41.10390 28.73081 3452 ft 190 kts
2026-04-16 04:14 41.11681 28.73056 3204 ft 183 kts
2026-04-16 04:14 41.12935 28.73032 2984 ft 177 kts
2026-04-16 04:15 41.14150 28.73008 2769 ft 170 kts
2026-04-16 04:15 41.15302 28.72985 2525 ft 160 kts
2026-04-16 04:15 41.16394 28.72964 2304 ft 154 kts
2026-04-16 04:15 41.17448 28.72944 2105 ft 150 kts
2026-04-16 04:16 41.18456 28.72924 1901 ft 141 kts
2026-04-16 04:16 41.19434 28.72906 1701 ft 141 kts
2026-04-16 04:16 41.20398 28.72888 1517 ft 140 kts
2026-04-16 04:16 41.21353 28.72869 1327 ft 139 kts
2026-04-16 04:17 41.22311 28.72851 1127 ft 136 kts
2026-04-16 04:17 41.23257 28.72831 940 ft 136 kts
2026-04-16 04:17 41.24198 28.72810 755 ft 135 kts
2026-04-16 04:17 41.25134 28.72793 590 ft 134 kts
2026-04-16 04:18 41.26066 28.72771 430 ft 134 kts
2026-04-16 04:18 41.26980 28.72733 337 ft 122 kts
2026-04-16 04:18 41.27675 28.72759 334 ft 80 kts 356°
2026-04-16 04:18 41.28096 28.72733 334 ft 41 kts 359°
2026-04-16 04:19 41.28334 28.72775 333 ft 30 kts 18°
2026-04-16 04:19 41.28430 28.72855 333 ft 9 kts 32°
2026-04-16 04:19 41.28466 28.72891 331 ft 5 kts 72°
2026-04-16 04:19 41.28462 28.72909 333 ft 0 kts 109°
2026-04-16 04:20 41.28420 28.72951 334 ft 11 kts 174°
2026-04-16 04:20 41.28332 28.72956 333 ft 16 kts 178°
2026-04-16 04:20 41.28198 28.72958 333 ft 22 kts 180°
2026-04-16 04:21 41.28043 28.72960 332 ft 23 kts 179°
2026-04-16 04:21 41.27883 28.72965 330 ft 23 kts 179°
2026-04-16 04:21 41.27731 28.72968 334 ft 18 kts 179°
2026-04-16 04:21 41.27625 28.72976 331 ft 13 kts 164°
2026-04-16 04:22 41.27593 28.73075 330 ft 13 kts 89°
2026-04-16 04:22 41.27596 28.73198 333 ft 14 kts 89°
2026-04-16 04:22 41.27597 28.73333 331 ft 15 kts 89°
2026-04-16 04:22 41.27600 28.73479 334 ft 16 kts 89°
2026-04-16 04:23 41.27603 28.73636 334 ft 17 kts 88°
2026-04-16 04:23 41.27605 28.73803 334 ft 18 kts 90°
2026-04-16 04:23 41.27607 28.73953 330 ft 14 kts 88°
2026-04-16 04:23 41.27608 28.74062 334 ft 10 kts 90°
2026-04-16 04:24 41.27598 28.74135 332 ft 6 kts 133°
2026-04-16 04:24 41.27553 28.74145 332 ft 2 kts 173°
2026-04-16 04:24 41.27552 28.74145 332 ft 0 kts 173°